Location: Hauts Prats
(44.7500°N, 6.8500°E)
Time: 21:49:29
(UTC+00:00)

Daily predictions for brighter satellites

Satellite Brightness Start Highest point End
(mag) Time Altitude Azimuth Time Altitude Azimuth Time Altitude Azimuth
Cosmos 2227 Rocket 3.3 16:18:25 10° SW 16:23:46 43° WNW 16:29:09 10° NNE
USA 307 2.8 16:20:38 10° NW 16:24:25 50° NNE 16:28:08 10° ESE
[s.n.58449] 3.4 16:24:14 10° W 16:26:39 43° S 16:29:04 10° ESE
[s.n.58459] 3.4 16:25:18 10° W 16:27:49 44° S 16:30:18 10° ESE
Cosmos 44 3.6 16:22:26 10° NW 16:27:51 88° WSW 16:32:59 10° SSE
[s.n.58458] 3.4 16:26:01 10° W 16:28:31 44° SSW 16:31:01 10° ESE
Cosmos 1140 Rocket 4.0 16:23:48 10° N 16:28:33 35° ENE 16:33:15 10° SE
SAR-Lupe-2 3.5 16:25:15 10° SSE 16:28:48 71° ENE 16:32:23 10° N
[s.n.58456] 3.4 16:26:50 10° W 16:29:20 43° SSW 16:31:50 10° ESE
[s.n.58447] 3.4 16:27:10 10° W 16:29:38 43° SSW 16:32:06 10° ESE
[s.n.58457] 3.5 16:27:36 10° W 16:30:06 43° SSW 16:32:36 10° ESE
[s.n.58455] 3.5 16:28:22 10° W 16:30:52 43° SSW 16:33:22 10° ESE
[s.n.58454] 3.5 16:29:08 10° W 16:31:38 42° SSW 16:34:08 10° ESE
[s.n.58453] 3.5 16:29:55 10° W 16:32:25 42° SSW 16:34:55 10° ESE
ARGOS 4.1 16:27:14 10° S 16:32:32 55° W 16:37:53 10° NNW
[s.n.58452] 3.5 16:30:38 10° W 16:33:08 42° SSW 16:35:38 10° ESE
[s.n.58451] 3.5 16:31:24 10° W 16:33:55 42° SSW 16:36:25 10° ESE
[s.n.58450] 3.5 16:32:10 10° W 16:34:40 41° SSW 16:37:11 10° ESE
Cosmos 1666 2.6 16:31:44 10° N 16:35:12 53° E 16:38:40 10° SSE
[s.n.58446] 3.6 16:34:28 10° W 16:36:58 41° SSW 16:39:29 10° ESE
[s.n.58445] 3.6 16:35:16 10° W 16:37:46 40° SSW 16:40:17 10° ESE
Cosmos 1603 4.3 16:33:15 10° NNW 16:38:28 35° NE 16:43:37 10° ESE
[s.n.58444] 3.6 16:36:03 10° W 16:38:33 40° SSW 16:41:03 10° ESE
[s.n.58443] 3.6 16:36:47 10° W 16:39:18 40° SSW 16:41:47 10° ESE
DMSP B5D2-2 4.1 16:34:43 10° NNE 16:39:56 70° ESE 16:45:08 10° S
[s.n.58442] 3.6 16:37:37 10° W 16:40:07 40° SSW 16:42:37 10° ESE
[s.n.58441] 3.6 16:38:25 10° W 16:40:56 39° SSW 16:43:26 10° ESE
[s.n.58440] 3.7 16:39:08 10° W 16:41:39 39° SSW 16:44:09 10° ESE
Meteor 1-31 Rocket 2.9 16:38:30 10° SE 16:42:02 46° ENE 16:45:37 10° N
[s.n.58439] 3.7 16:39:56 10° W 16:42:27 39° SSW 16:44:57 10° ESE
Cosmos 1076 Rocket 3.6 16:38:08 10° N 16:42:31 82° W 16:46:51 10° S
[s.n.58437] 3.7 16:40:42 10° W 16:43:13 39° SSW 16:45:43 10° ESE
[s.n.58438] 3.7 16:41:28 10° W 16:43:58 38° SSW 16:46:29 10° ESE
Cosmos 1544 4.2 16:44:11 10° NNW 16:47:16 42° W 16:50:21 10° SSW
USA 306 1.3 16:45:19 10° WNW 16:47:30 70° SW 16:49:34 10° SE
ATLAS CENTAUR R/B 2.7 16:47:13 10° NW 16:51:26 68° NE 16:59:42 10° ESE
SL-16 R/B 3.6 16:46:07 10° NW 16:51:28 43° WSW 16:56:46 10° S
Cosmos 1602 3.5 16:50:22 10° N 16:54:06 76° E 16:57:49 10° SSE
SL-8 R/B 3.7 16:50:43 10° WNW 16:55:31 87° SSW 17:00:19 10° ESE
USA 305 2.5 16:52:25 10° NW 16:56:15 67° NE 17:00:02 10° ESE
RESURS DK-1 4.2 16:54:16 10° NNE 16:56:12 13° NE 16:56:12 13° NE
CZ-4B R/B 3.7 16:53:10 10° SE 16:57:57 44° ENE 17:02:38 10° N
Cosmos 1782 3.6 16:56:57 10° SSE 17:00:20 28° E 17:03:03 14° NE
Cosmos 1812 Rocket 3.7 16:56:28 10° SSE 17:00:38 49° E 17:04:52 10° NNE
Cosmos 1943 3.1 16:56:56 10° NNW 17:02:36 73° ENE 17:08:14 10° SSE
Helios 1A 3.3 16:59:18 10° NNE 17:03:17 43° E 17:07:13 10° S
ATLAS 2AS CENTAUR R/B 3.4 16:58:09 10° NNW 17:04:23 33° NE 17:09:08 15° E
SMAP 3.2 16:59:58 10° S 17:04:37 79° WSW 17:09:18 10° NNW
Helios 1B rocket 4.1 17:01:36 10° SSW 17:05:14 35° W 17:08:53 10° NNW
Cosmos 1500 4.5 17:02:23 10° NNW 17:05:44 40° W 17:09:03 10° SSW
NOAA 6 4.4 17:01:02 10° SE 17:05:48 41° ENE 17:10:35 10° N
CZ-4B R/B 3.6 17:04:29 10° S 17:08:04 81° WSW 17:11:43 10° NNW
Radarsat Rocket 4.1 17:06:48 10° SE 17:12:21 49° ENE 17:18:12 10° N
Cosmos 407 Rocket 3.4 17:08:54 10° NNW 17:14:02 62° ENE 17:19:04 10° SSE
ISS -1.9 17:16:52 10° WNW 17:19:53 32° SW 17:22:55 10° SSE
Cosmos 2251 Rocket 3.5 17:16:26 10° NNW 17:21:49 77° ENE 17:27:11 10° SSE
Cosmos 220 Rocket 4.4 17:21:30 10° N 17:25:32 38° ENE 17:27:53 21° ESE
Cosmos 2056 Rocket 4.1 17:21:29 10° SSE 17:26:22 37° ESE 17:28:45 25° NE
COSMOS 2455 4.1 17:22:37 10° SSE 17:26:52 20° ESE 17:27:03 20° ESE
Timation 2 Rocket 4.1 17:21:34 10° S 17:27:12 46° ESE 17:30:41 22° NE
Cosmos 1844 4.1 17:22:03 10° S 17:27:26 42° ESE 17:30:24 24° NE
Cosmos 1954 Rocket 4.5 17:23:41 10° N 17:28:32 36° ENE 17:31:27 20° ESE
Lacrosse 5 2.0 17:24:26 10° SSW 17:29:23 58° SE 17:31:43 30° ENE
CZ-4 R/B 4.4 17:25:28 10° SSE 17:29:27 56° ENE 17:33:28 10° N
Cosmos-2242 3.5 17:25:56 10° SSW 17:30:14 60° W 17:34:31 10° N
COSMO-SKYMED 1 2.6 17:29:30 17° NNE 17:32:46 59° E 17:37:03 10° S
Lacrosse 4 Rocket 1.9 17:29:58 10° NW 17:34:15 62° WSW 17:38:24 10° SSE
Cosmos 1833 Rocket 4.5 17:31:57 10° N 17:33:48 14° NNE 17:33:48 14° NNE
APEX 3.7 17:36:11 10° SW 17:39:00 37° WNW 17:39:58 27° NNW
Meteor 2-2 Rocket 4.3 17:34:07 10° SSW 17:39:51 84° W 17:45:47 10° N
Cosmos 1553 Rocket 4.3 17:34:18 10° N 17:40:18 42° ENE 17:46:08 10° SE
Cosmos 2221 2.7 17:36:43 10° SSE 17:40:44 44° E 17:41:02 43° E
Cosmos 2344 3.4 17:33:55 10° SW 17:41:36 88° NW 17:47:04 20° NE
USA 234 3.2 17:37:35 24° NE 17:41:51 89° SE 17:48:25 10° SW
Meteor 1-25 Rocket 4.4 17:37:45 10° NNW 17:43:24 72° W 17:48:56 10° S
Cosmos 1812 4.0 17:39:57 10° SSW 17:43:24 38° WNW 17:46:52 10° N
Cosmos 1818 3.7 17:40:04 10° SW 17:45:29 76° NW 17:48:46 25° NNE
Cosmos 1190 Rocket 3.9 17:40:49 10° NNW 17:46:09 68° ENE 17:51:23 10° SSE
Cosmos 2026 Rocket 3.9 17:40:39 10° S 17:46:54 83° E 17:53:17 10° N
USA 276 3.8 17:46:46 10° WNW 17:48:03 21° NW 17:48:03 21° NW
Cosmos 1371 Rocket 4.0 17:45:25 10° S 17:50:33 61° ESE 17:52:32 36° NE
H-2A R/B 4.3 17:57:16 10° S 17:58:24 11° S 17:59:46 10° SSE
Cosmos 1844 Rocket 2.5 17:53:48 10° SSW 17:59:22 87° ESE 18:02:02 33° NNE
USA 307 4.5 17:56:24 10° WNW 17:59:46 29° SW 18:02:22 14° S
Cosmos 2263 Rocket 4.1 17:55:27 10° WSW 17:59:54 24° NW 18:04:23 10° N
Meteor 1-26 Rocket 4.1 17:54:42 10° S 18:00:12 74° E 18:04:17 20° NNE
YAOGAN 1 4.4 18:07:02 20° N 18:07:02 20° N 18:08:23 10° N
Cosmos 1092 Rocket 4.1 17:58:21 10° SSW 18:04:27 72° W 18:10:37 10° N
Cosmos 1766 Rocket 3.3 18:00:36 10° N 18:04:59 79° E 18:09:17 10° SSE
Cosmos 1933 3.9 18:01:57 10° SSW 18:05:51 54° W 18:07:55 26° N
Cosmos 1420 Rocket 3.9 18:01:15 10° SSW 18:06:30 88° ESE 18:08:27 40° NNE
YAOGAN 3 4.4 18:04:51 10° SSE 18:09:09 85° ENE 18:13:30 10° NNW
ADEOS 3.6 18:04:06 10° SSE 18:09:19 83° WSW 18:14:35 10° NNW
Meteor 1-5 Rocket 4.3 18:08:26 10° NNW 18:14:10 81° W 18:20:02 10° S
Cosmos 1624 Rocket 3.9 18:09:06 10° SSW 18:14:19 88° WNW 18:15:40 52° NNE
SL-08 R/B 3.8 18:25:44 38° NNW 18:27:13 56° WNW 18:31:45 10° SSW
RESURS DK-1 4.4 18:30:32 10° NNW 18:31:56 21° NNW 18:31:56 21° NNW
Cosmos 676 Rocket 4.2 18:34:43 10° NNW 18:40:00 70° WSW 18:40:05 70° WSW
BREEZE-M DEB 4.5 18:24:48 10° WSW 18:48:03 88° NNW 18:49:09 69° ENE
ATLAS 2AS CENTAUR R/B 2.8 18:49:01 10° NW 18:55:49 69° WSW 18:56:38 62° SSW
COSMOS 2455 3.7 19:06:10 10° SW 19:10:14 44° SW 19:10:14 44° SW
Lacrosse 5 3.6 19:07:54 10° W 19:10:56 29° WNW 19:10:56 29° WNW
USA 234 4.2 19:24:56 40° NNW 19:24:56 40° NNW 19:30:29 10° W
